Accueil
METAR-TAF:

METAR-TAF

Aéroports :

Shawnee Regional Airport

Shawnee, Oklahoma, États-Unis

latitude: 35-21-26N, longitude: 096-56-34W, altitude: 327 m

Observation

Le bulletin a été fait il y a 24 minutes, à 11:15 UTC
Vent 3 kt de sud
Température -4°C
Humidité 86%
Pression 1026 hPa
Visibilité: 16.1 km
Ciel clair

METAR: KSNL 101115Z AUTO 18003KT 10SM CLR M04/M06 A3030 RMK AO2 T10381064

Heure: 05:39 (11:39 UTC)


TAF: absent

Observations et prévisions météorologiques de plus de 4000 aéroports (messages METAR et TAF).

Les stations disponibles sont représentées par des disques jaunes et rouges sur la carte.

Passer la souris dessus pour voir le nom de la station.

Cliquer dessus pour voir les observations et prévisions météorologiques.

Pour changer de carte: cliquez sur les boutons verts avec une croix noire pour zoomer, sur le bouton vert avec un tiret pour effectuer un zoom arrière, ou sur les flèches vertes pour les cartes adjacentes.


METAR-TAF: